Location: *
(35.8942°S, 156.6975°W)
Time: 02:48:32
(UTC+00:00)

Daily predictions for brighter satellites

Satellite Brightness Start Highest point End
(mag) Time Altitude Azimuth Time Altitude Azimuth Time Altitude Azimuth
CENTAUR R/B 3.1 05:32:13 10° SW 05:36:46 38° WNW 05:40:55 10° N
SJ-7 4.2 05:33:05 10° SSE 05:36:54 66° E 05:40:38 10° N
Cosmos 2058 2.8 05:44:36 10° N 05:48:35 66° E 05:52:37 10° SSE
YAOGAN 1 2.6 05:46:09 10° SSE 05:50:30 88° ENE 05:54:48 10° NNW
Cosmos 2142 Rocket 4.5 05:46:20 10° S 05:52:32 75° E 05:58:43 10° N
Lacrosse 5 rocket 1.9 05:49:27 10° SSW 05:53:08 41° SE 05:56:28 12° ENE
Resurs 1-3 3.6 05:49:16 10° SSE 05:53:40 90° NNW 05:58:00 10° NNW
Cosmos 1862 3.3 05:50:19 10° N 05:53:53 51° E 05:57:32 10° SSE
BREEZE-M TANK 4.1 05:50:56 10° N 05:54:21 19° NE 05:57:13 10° E
SJ-6B 3.5 05:52:28 10° SE 05:55:37 28° E 05:58:42 10° NNE
Resurs 01 Rocket 2.2 05:51:33 10° SSE 05:55:39 36° E 05:59:42 10° NNE
NOAA 6 4.1 05:51:38 10° SSE 05:56:49 62° ENE 06:01:56 10° N
BREEZE-M DEB 1.8 05:55:14 10° NW 05:57:21 54° NE 06:00:15 10° ESE
EXPRESS MD2 2.9 05:56:21 10° SW 05:58:53 37° SSE 06:00:26 15° E
Meteor 1-31 Rocket 3.8 05:56:30 10° SE 05:59:21 22° E 06:01:43 12° NE
IRAS Rocket 4.3 05:53:39 10° SSE 05:59:22 83° ENE 06:05:01 10° NNW
Cosmos 1782 2.5 06:01:09 10° S 06:04:49 75° E 06:08:26 10° N
Cosmos 2084 3.5 06:00:53 10° SW 06:05:11 83° WNW 06:09:06 12° NNE
PSLV R/B 4.0 06:01:04 10° S 06:05:17 65° WSW 06:09:23 10° NNW
USA 215 4.5 06:06:15 10° E 06:10:17 17° ENE 06:14:18 10° NNE
Sakura Rocket 4.3 06:06:48 10° WNW 06:10:29 29° N 06:13:41 16° NE
Cosmos 1656 3.8 06:05:39 10° SSW 06:11:03 58° ESE 06:15:28 15° NE
Cosmos 1833 Rocket 2.7 06:05:54 10° N 06:11:27 64° ENE 06:17:04 10° SSE
Cosmos 1606 Rocket 4.4 06:10:10 10° SSE 06:14:06 32° ESE 06:16:32 19° NE
COBE Rocket 3.9 06:10:51 10° NNE 06:15:37 67° ESE 06:20:37 10° S
NOSS 3-4 (A) 4.3 06:09:07 10° NNW 06:17:55 68° ENE 06:26:25 10° SE
NOSS 3-4 (C) 4.3 06:09:11 10° NNW 06:17:58 67° ENE 06:26:27 10° SE
USA 59 Rocket 4.0 06:16:36 10° SSW 06:20:47 13° S 06:24:48 10° SE
Cosmos 1544 Rocket 4.2 06:16:58 10° SSW 06:21:15 54° W 06:25:27 10° N
Cosmos 1980 Rocket 4.3 06:19:45 10° SSE 06:21:33 11° SE 06:23:20 10° ESE
OAO 1 Rocket 4.4 06:23:43 10° W 06:29:06 80° N 06:33:20 17° E
Atlas Centaur 2 3.0 06:25:02 10° NW 06:29:56 32° NNE 06:33:10 21° ENE
ATLAS 5 CENTAUR R/B 3.7 06:29:44 19° NE 06:32:27 24° ENE 06:37:55 10° ESE
Cosmos 1486 Rocket 4.0 06:27:19 10° SSW 06:32:38 72° ESE 06:36:05 22° NNE
Cosmos 1092 Rocket 3.9 06:28:53 10° N 06:34:57 66° E 06:41:06 10° SSE
CARTOSAT-1 4.3 06:31:08 10° S 06:35:20 55° WSW 06:39:28 10° NNW
Cosmos 1892 Rocket 3.8 06:34:00 20° NNE 06:36:51 51° E 06:41:14 10° SSE
SPOT 5 3.7 06:33:51 10° SE 06:38:10 32° E 06:39:33 27° NE
NOSS 3-2 (C) 3.1 06:36:06 10° SSW 06:42:10 87° ESE 06:44:58 28° NNE
Cosmos 1763 Rocket 3.3 06:39:41 10° NNW 06:44:46 87° ENE 06:49:52 10° SSE
Cosmos 2026 Rocket 4.0 06:40:20 10° N 06:46:37 87° W 06:53:04 10° S
Cosmos 1777 Rocket 3.9 06:43:41 10° SSW 06:48:58 77° ESE 06:51:38 30° NNE
Meteor 2-20 4.4 06:43:09 10° S 06:49:16 65° E 06:52:46 26° NNE
Cosmos 540 Rocket 3.3 06:44:46 10° NNW 06:49:52 81° ENE 06:55:01 10° SSE
USA 281 3.8 06:48:19 10° SE 06:54:11 33° ENE 06:55:41 30° NE
Cosmos 1726 Rocket 3.3 06:52:40 10° S 06:56:48 73° E 06:57:57 45° NNE
Cosmos 2360 4.3 06:51:25 10° SSW 06:57:08 74° WNW 07:00:19 27° N
BREEZE-M DEB (TANK) 3.8 06:46:09 10° SW 06:57:10 65° NW 06:58:49 36° NNE
RESURS DK-1 3.8 07:01:11 22° ESE 07:01:11 22° ESE 07:03:01 10° SE
Terra 3.4 06:57:17 10° SE 06:59:39 19° ESE 06:59:39 19° ESE
Hubble Space Telescope 2.4 06:58:21 10° NW 07:00:00 19° NNW 07:00:00 19° NNW
Lacrosse 4 Rocket 3.8 07:00:50 10° WSW 07:03:43 18° WNW 07:06:37 10° NNW
IRIDIUM 104 4.5 07:00:09 17° N 07:04:15 75° W 07:09:34 10° S
Cosmos 1346 Rocket 3.0 07:03:11 26° NNW 07:05:05 61° W 07:08:48 10° S
CSL-04 Rocket 3.5 07:04:42 10° SSE 07:10:03 76° ENE 07:12:41 31° N
Cosmos 2082 Rocket 2.6 07:10:21 39° ENE 07:10:34 40° ENE 07:15:52 10° SE
Centaur AC-116 4.5 07:07:22 10° WNW 07:12:44 24° NNW 07:12:44 24° NNW
PAYLOAD B 4.3 07:09:08 10° SSE 07:14:44 59° ENE 07:16:19 43° NNE
Cosmos 1697 Rocket 2.7 07:10:01 10° SSW 07:15:44 70° ESE 07:17:18 47° NE
Meteor 2-20 Rocket 4.4 07:09:49 10° S 07:16:01 76° E 07:18:29 39° NNE
Feng Yun 1-1 Rocket 4.4 07:12:39 10° SSE 07:18:33 63° ENE 07:20:28 42° NNE
Meteor 1-26 Rocket 4.5 07:12:43 10° S 07:18:47 61° E 07:20:22 46° NE
Cosmos 841 Rocket 3.9 07:21:32 42° E 07:21:32 42° E 07:25:56 10° SSE
Helios 1A 3.2 07:20:30 52° NNW 07:21:13 62° WNW 07:25:16 10° SSW
Gbstr 26 Del rocket 2.9 07:18:14 10° SW 07:23:27 88° NW 07:23:52 73° NE
CZ-4 R/B 1.8 07:19:50 10° S 07:23:29 54° WSW 07:24:18 43° WNW
Cosmos 1354 Rocket 4.0 07:19:19 10° SSW 07:24:41 85° WNW 07:25:58 53° N
Intercosmos 25 4.1 07:20:50 10° S 07:26:27 50° ESE 07:26:27 50° ESE
Lacrosse 5 rocket 3.3 07:27:20 10° WSW 07:29:56 17° WNW 07:30:09 17° NW
Aureole 1 Rocket 4.1 07:27:24 10° S 07:31:04 32° SE 07:31:04 32° SE
Resurs 01 Rocket 4.3 07:28:41 10° SSW 07:31:42 18° WSW 07:34:42 10° WNW
Cosmos 468 Rocket 4.2 07:28:23 22° NNW 07:31:42 66° WSW 07:36:51 10° SSE
Exosat Rocket 4.0 07:31:38 49° NNE 07:32:53 57° ENE 07:38:18 10° SSE
SL-24 R/B 4.1 07:32:37 70° NNW 07:33:01 77° W 07:37:20 10° SSW
COSMOS 2406 4.4 07:35:09 27° ESE 07:35:09 27° ESE 07:38:27 10° SE
Cosmos 489 Rocket 4.3 07:30:51 36° N 07:33:35 82° ENE 07:39:53 10° SSE
USA 238 DEB 3.5 07:27:25 10° SSW 07:33:54 64° SE 07:35:12 51° ENE
USA 238 3.5 07:27:31 10° SSW 07:34:00 63° SE 07:35:18 51° ENE
SEDSat Delta rocket 4.0 07:28:54 10° WNW 07:34:51 50° N 07:34:51 50° N
Cosmos 2266 Rocket 4.0 07:34:46 54° ENE 07:35:31 58° E 07:41:29 10° SSE
MOS 1 4.2 07:29:54 10° SSE 07:35:37 65° ENE 07:36:17 60° NE
Okean-O 4.1 07:39:41 10° SSE 07:42:00 27° SE 07:42:00 27° SE
NOSS 2-3 (C) 4.4 07:39:13 10° SSW 07:47:05 83° WNW 07:48:11 63° NNE
MOS 1-B 4.5 07:47:06 10° SSE 07:52:27 57° E 07:52:27 57° E
Cosmos 1758 Rocket 4.1 07:54:20 54° S 07:54:20 54° S 07:57:45 10° S
USA 215 3.1 07:47:10 10° SE 07:53:48 82° NE 08:00:22 10° NW
BREEZE M DEB (TANK) 3.3 07:57:26 46° WSW 07:58:03 52° SSW 08:05:24 10° SE
CZ-4B R/B 3.3 07:53:29 10° S 07:58:52 70° WSW 07:59:43 59° NW
ADEOS 4.1 07:54:44 10° S 07:59:52 54° WSW 08:01:20 41° WNW
Meteor 2-6 Rocket 4.1 07:58:47 10° S 08:04:12 76° SE 08:04:12 76° SE
Cosmos-2242 4.1 08:00:35 10° SSW 08:03:58 39° WSW 08:03:58 39° WSW
Cosmos 1980 Rocket 2.1 08:00:39 10° SSW 08:06:15 81° SE 08:06:15 81° SE
S3M 3.9 08:01:23 10° S 08:07:37 72° E 08:07:41 72° E
Cosmos 1655 Rocket 4.2 08:11:16 57° ESE 08:11:16 57° ESE 08:16:53 10° SSE
USA 59 Rocket 3.1 08:06:00 10° SSW 08:14:09 28° SE 08:18:30 19° ESE
ATLAS 5 CENTAUR R/B 3.0 08:08:54 16° NW 08:14:43 67° SW 08:21:46 10° SSE
Okean O Rocket 2.6 08:11:31 10° S 08:14:34 43° S 08:14:34 43° S
ERS-1 Rocket 3.5 08:12:48 10° S 08:17:44 53° WSW 08:17:53 53° W
Atlas Centaur 2 3.5 08:11:54 10° WNW 08:15:09 32° NW 08:15:09 32° NW
IRS-1A Rocket 4.3 08:13:27 10° SSE 08:19:05 82° SSW 08:19:05 82° SSW
Cosmos 1898 Rocket 3.8 08:16:07 10° SSW 08:20:36 63° SSW 08:20:36 63° SSW
Terra 3.2 08:34:08 10° S 08:38:16 34° WSW 08:38:16 34° WSW
USA 281 4.2 08:32:31 10° S 08:38:38 42° WSW 08:42:33 21° WNW
Cosmos 2315 Rocket 4.0 08:32:48 10° S 08:38:37 76° SSW 08:38:37 76° SSW
Cosmos 2360 Rocket 4.3 08:35:45 10° SSE 08:39:13 16° SE 08:39:19 16° SE
Ariane Rocket 4.4 08:36:09 10° SSE 08:38:51 30° SE 08:38:51 30° SE
Cosmos 2333 Rocket 3.8 08:38:46 10° S 08:42:52 25° SE 08:42:52 25° SE
COSMOS 2455 3.6 08:38:10 10° SSW 08:43:19 44° SE 08:43:19 44° SE
Cosmos 2322 Rocket 4.1 08:40:02 10° S 08:43:47 20° SE 08:43:47 20° SE
SL-16 R/B 3.3 08:49:15 10° S 08:53:30 38° SSE 08:53:30 38° SSE
Cosmos 2082 Rocket 4.0 08:52:03 19° W 08:54:42 26° WSW 08:59:29 10° S
Cosmos 2369 4.5 08:52:39 10° SSW 08:56:53 48° SW 08:56:53 48° SW
Cosmos 2219 Rocket 4.2 09:10:54 10° SSE 09:14:28 18° SE 09:14:28 18° SE
USA 59 Rocket 1.6 09:55:23 10° SSW 10:04:11 76° SW 10:04:11 76° SW
USA 267 3.6 10:08:01 61° SSW 10:08:01 61° SSW 10:13:25 10° SW
SeaSat 1 4.4 10:22:27 24° SSW 10:22:27 24° SSW 10:24:24 10° SSW
ATLAS 2AS CENTAUR R/B 3.3 10:24:58 50° ESE 10:24:58 50° ESE 10:30:19 10° SE
Cosmos 2360 Rocket 3.7 10:18:03 10° SSW 10:21:03 32° SW 10:21:03 32° SW
Cosmos 2333 Rocket 4.0 10:22:29 10° SW 10:24:52 24° SW 10:24:52 24° SW
Cosmos 2322 Rocket 3.8 10:22:56 10° SSW 10:25:33 27° SW 10:25:33 27° SW
SL-16 R/B 4.5 10:34:00 10° SW 10:35:20 15° WSW 10:35:20 15° WSW
IDEFIX/ARIANE 42P 4.1 10:43:44 32° SE 10:43:44 32° SE 10:47:09 10° S
Cosmos 2219 Rocket 3.8 10:53:29 10° SSW 10:56:08 28° SW 10:56:08 28° SW
Cosmos 2154 Rocket 4.4 11:06:48 60° SSE 11:06:48 60° SSE 11:12:00 10° S
Cosmos 2263 Rocket 4.4 11:17:49 14° E 11:17:49 14° E 11:20:32 10° ESE
NPP 4.5 11:19:51 48° S 11:19:51 48° S 11:23:48 10° S
ADEOS II 4.2 11:21:43 18° E 11:23:19 21° ESE 11:27:09 10° SSE
ALOS 4.4 11:27:26 20° ESE 11:27:48 20° ESE 11:31:07 10° SSE
COSMOS 2428 3.5 11:28:57 10° SSW 11:33:01 48° SSW 11:33:01 48° SSW
CZ-2D R/B 3.1 11:37:09 39° ESE 11:37:22 39° ESE 11:42:19 10° S
Cosmos 2297 Rocket 2.7 11:39:57 56° S 11:39:57 56° S 11:44:30 10° SSE
H-2A R/B 4.0 11:45:33 24° ESE 11:45:33 24° ESE 11:48:49 10° SSE
Cosmos 2341 Rocket 4.5 11:45:46 51° ENE 11:46:17 52° E 11:52:31 10° SSE
Meteor 2-10 Rocket 4.3 11:48:59 45° ESE 11:48:59 45° ESE 11:53:21 10° SSE
Resurs 1-4 Rocket 2.5 11:51:47 59° ESE 11:51:47 59° ESE 11:56:48 10° S
USA 59 Rocket 3.5 11:47:57 10° WSW 11:49:51 13° WSW 11:49:51 13° WSW
Envisat 3.9 11:54:44 42° E 11:55:07 43° ESE 11:59:57 10° S
